This is the latest recevied weather packets stored in our database for station/object KY4LEX. If no packets are shown the sender has not sent any weather packets the latest 10 day(s).
| Time | Temp. | Humidity | Pressure | Rain* | Wind** | Luminosity | Snow |
|---|---|---|---|---|---|---|---|
| 1778161425 | 12.22° C | 50% | 1020.6 hPa | 0 mm | - | 114 W/m² | - |
| 1778161121 | 11.67° C | 52% | 1020.8 hPa | 0 mm | - | 243 W/m² | - |
| 1778160817 | 11.11° C | 52% | 1020.9 hPa | 0 mm | - | 84 W/m² | - |
| 1778160516 | 11.11° C | 54% | 1021 hPa | 0 mm | - | 47 W/m² | - |
| 1778160211 | 11.11° C | 55% | 1020.7 hPa | 0 mm | - | 44 W/m² | - |
| 1778159909 | 10.56° C | 55% | 1020.8 hPa | 0 mm | - | 44 W/m² | - |
| 1778159605 | 10.56° C | 57% | 1020.8 hPa | 0 mm | - | 43 W/m² | - |
| 1778159302 | 10.56° C | 57% | 1020.9 hPa | 0 mm | - | 43 W/m² | - |
| 1778159000 | 10° C | 58% | 1020.8 hPa | 0 mm | - | 43 W/m² | - |
| 1778158699 | 10° C | 57% | 1020.7 hPa | 0 mm | - | 43 W/m² | - |
| 1778158396 | 10° C | 58% | 1020.8 hPa | 0 mm | - | 41 W/m² | - |
| 1778158093 | 10° C | 59% | 1021 hPa | 0 mm | - | 41 W/m² | - |
| 1778157789 | 10° C | 62% | 1021.1 hPa | 0 mm | - | 40 W/m² | - |
| 1778157488 | 9.44° C | 62% | 1020.8 hPa | 0 mm | - | 39 W/m² | - |
| 1778157185 | 9.44° C | 62% | 1021.1 hPa | 0 mm | - | 38 W/m² | - |
| 1778156880 | 9.44° C | 63% | 1021.2 hPa | 0 mm | - | 38 W/m² | - |
| 1778156576 | 9.44° C | 66% | 1020.9 hPa | 0 mm | - | 37 W/m² | - |
| 1778156272 | 9.44° C | 65% | 1021.2 hPa | 0 mm | - | 36 W/m² | - |
| 1778155968 | 9.44° C | 65% | 1020.9 hPa | 0 mm | - | 43 W/m² | - |
| 1778155664 | 8.89° C | 68% | 1021.2 hPa | 0 mm | - | 38 W/m² | - |
| 1778155361 | 8.89° C | 68% | 1020.9 hPa | 0 mm | - | 33 W/m² | - |
| 1778155057 | 8.89° C | 69% | 1020.9 hPa | 0 mm | - | 31 W/m² | - |
| 1778154753 | 8.89° C | 70% | 1020.9 hPa | 0 mm | - | 32 W/m² | - |
| 1778154449 | 8.33° C | 70% | 1020.8 hPa | 0 mm | - | 30 W/m² | - |
| 1778154147 | 8.33° C | 73% | 1020.8 hPa | 0 mm | - | 27 W/m² | - |
* Rain latest hour (hover to see other rain measurements)
** Current wind speed in m/s (hover to see current wind gust speed)